timestamp,surface_pressure_avg,surface_temp_avg,battery_voltage,lat,long
2020-05-21 00:09:01+00:00,317.5046,3.7,13.29,47.84626,-54.09684
2020-05-21 00:19:01+00:00,313.9431,3.8,12.97,47.84626,-54.09684
2020-05-21 00:29:01+00:00,309.608,3.88,12.97,47.84626,-54.09684
2020-05-21 00:39:01+00:00,304.3879,4.21,12.97,47.84626,-54.09684
2020-05-21 00:49:01+00:00,298.5264,4.3,12.97,47.84626,-54.09684
2020-05-21 00:59:01+00:00,294.1481,4.1,12.97,47.84626,-54.09684
2020-05-21 01:09:01+00:00,288.5697,4.1,12.97,47.84626,-54.09684
2020-05-21 01:19:01+00:00,281.3948,4.2,12.73,47.84626,-54.09684
2020-05-21 01:29:01+00:00,273.3547,4.1,12.73,47.84626,-54.09684
2020-05-21 01:39:01+00:00,266.1981,4.19,12.73,47.84626,-54.09684
2020-05-21 01:49:01+00:00,259.0664,4.3,12.73,47.84626,-54.09684
2020-05-21 01:59:01+00:00,251.9031,4.4,12.73,47.84626,-54.09684
2020-05-21 02:09:01+00:00,244.2548,4.44,12.73,47.84626,-54.09684
2020-05-21 02:19:01+00:00,235.8981,4.5,12.65,47.84626,-54.09684
2020-05-21 02:29:01+00:00,229.4831,4.57,12.65,47.84626,-54.09684
2020-05-21 02:39:01+00:00,225.5364,4.6,12.65,47.84626,-54.09684
2020-05-21 02:49:01+00:00,220.5264,4.6,12.65,47.84626,-54.09684
2020-05-21 02:59:01+00:00,212.5448,4.7,12.65,47.84626,-54.09684
2020-05-21 03:09:01+00:00,206.2715,4.8,12.65,47.84626,-54.09684
2020-05-21 03:19:01+00:00,201.8864,4.86,12.65,47.84626,-54.09684
2020-05-21 03:29:01+00:00,197.7698,4.9,12.65,47.84626,-54.09684
2020-05-21 03:39:01+00:00,191.1298,4.9,12.65,47.84626,-54.09684
2020-05-21 03:49:01+00:00,185.0832,4.9,12.65,47.84626,-54.09684
2020-05-21 03:59:01+00:00,182.3148,4.88,12.65,47.84626,-54.09684
2020-05-21 04:09:01+00:00,181.2365,4.8,12.65,47.84626,-54.09684
2020-05-21 04:19:01+00:00,177.2832,4.8,12.65,47.84626,-54.09684
2020-05-21 04:29:01+00:00,173.7848,4.8,12.65,47.84626,-54.09684
2020-05-21 04:39:01+00:00,175.7964,4.7,12.65,47.84626,-54.09684
2020-05-21 04:49:01+00:00,177.3998,4.7,12.65,47.84626,-54.09684
2020-05-21 04:59:01+00:00,175.5482,4.7,12.65,47.84626,-54.09684
2020-05-21 05:09:01+00:00,177.6231,4.7,12.65,47.84626,-54.09684
2020-05-21 05:19:01+00:00,183.3915,4.64,12.65,47.84626,-54.09684
2020-05-21 05:29:01+00:00,185.1831,4.64,12.65,47.84626,-54.09684
2020-05-21 05:39:01+00:00,184.0298,4.7,12.65,47.84626,-54.09684
2020-05-21 05:49:01+00:00,188.4831,4.7,12.65,47.84626,-54.09684
2020-05-21 05:59:01+00:00,195.6815,4.7,12.65,47.84626,-54.09684
2020-05-21 06:09:01+00:00,198.8565,4.7,12.65,47.84626,-54.09684
2020-05-21 06:19:01+00:00,198.9198,4.78,12.65,47.84626,-54.09684
2020-05-21 06:29:01+00:00,202.8998,4.8,12.65,47.84626,-54.09684
2020-05-21 06:39:01+00:00,211.1732,4.7,12.65,47.84626,-54.09684
2020-05-21 06:49:01+00:00,215.1248,4.7,12.65,47.84626,-54.09684
2020-05-21 06:59:01+00:00,215.1931,4.78,12.65,47.84626,-54.09684
2020-05-21 07:09:01+00:00,216.2164,4.78,12.65,47.84626,-54.09684
2020-05-21 07:19:01+00:00,222.6648,4.7,12.57,47.84626,-54.09684
2020-05-21 07:29:01+00:00,228.7198,4.7,12.57,47.84626,-54.09684
2020-05-21 07:39:01+00:00,233.3448,4.7,12.57,47.84626,-54.09684
2020-05-21 07:49:01+00:00,237.7664,4.7,12.57,47.84626,-54.09684
2020-05-21 07:59:01+00:00,243.3731,4.73,12.57,47.84626,-54.09684
2020-05-21 08:09:01+00:00,247.8181,4.8,12.57,47.84626,-54.09684
2020-05-21 08:19:01+00:00,252.0781,4.7,12.57,47.84626,-54.09684
2020-05-21 08:29:01+00:00,258.2598,4.7,12.57,47.84626,-54.09684
2020-05-21 08:39:01+00:00,266.0313,4.64,12.57,47.84626,-54.09684
2020-05-21 08:49:01+00:00,270.8864,4.75,12.57,47.84626,-54.09684
2020-05-21 08:59:01+00:00,276.3047,4.5,12.57,47.84626,-54.09684
2020-05-21 09:09:01+00:00,282.558,4.58,12.57,47.84626,-54.09684
2020-05-21 09:19:01+00:00,290.6364,4.1,12.57,47.84626,-54.09684
2020-05-21 09:29:01+00:00,295.3147,3.96,12.57,47.84626,-54.09684
2020-05-21 09:39:01+00:00,299.078,3.88,12.57,47.84626,-54.09684
2020-05-21 09:49:01+00:00,301.9397,3.9,12.57,47.84626,-54.09684
2020-05-21 09:59:01+00:00,306.3063,4.0,12.57,47.84626,-54.09684
2020-05-21 10:09:01+00:00,307.233,4.09,12.57,47.84626,-54.09684
2020-05-21 10:19:01+00:00,309.7263,4.1,12.89,47.84626,-54.09684
2020-05-21 10:29:01+00:00,313.3763,4.11,12.89,47.84626,-54.09684
2020-05-21 10:39:01+00:00,313.6729,4.16,12.89,47.84626,-54.09684
2020-05-21 10:49:01+00:00,313.4814,4.1,12.89,47.84626,-54.09684
2020-05-21 10:59:01+00:00,314.913,4.11,12.89,47.84626,-54.09684
2020-05-21 11:09:01+00:00,316.0713,4.1,12.89,47.84626,-54.09684
2020-05-21 11:19:01+00:00,315.7613,4.1,13.44,47.84626,-54.09684
2020-05-21 11:29:01+00:00,315.553,4.0,13.44,47.84626,-54.09684
2020-05-21 11:39:01+00:00,316.3264,3.83,13.44,47.84626,-54.09684
2020-05-21 11:49:01+00:00,313.798,4.1,13.44,47.84626,-54.09684
2020-05-21 11:59:01+00:00,312.1547,4.1,13.44,47.84626,-54.09684
2020-05-21 12:09:01+00:00,310.8446,4.0,13.44,47.84626,-54.09684
2020-05-21 12:19:01+00:00,308.3981,4.09,14.24,47.84626,-54.09684
2020-05-21 12:29:01+00:00,304.3181,4.43,14.24,47.84626,-54.09684
2020-05-21 12:39:01+00:00,300.5847,4.3,14.24,47.84626,-54.09684
2020-05-21 12:49:01+00:00,299.33799999999997,4.26,14.24,47.84626,-54.09684
2020-05-21 12:59:01+00:00,296.408,4.2,14.24,47.84626,-54.09684
2020-05-21 13:09:01+00:00,290.1914,4.32,14.24,47.84626,-54.09684
2020-05-21 13:19:01+00:00,285.1114,4.3,14.32,47.84626,-54.09684
2020-05-21 13:29:01+00:00,278.9547,4.39,14.32,47.84626,-54.09684
2020-05-21 13:39:01+00:00,271.6664,4.4,14.32,47.84626,-54.09684
2020-05-21 13:49:01+00:00,262.2214,4.4,14.32,47.84626,-54.09684
2020-05-21 13:59:01+00:00,256.3097,4.43,14.32,47.84626,-54.09684
2020-05-21 14:09:01+00:00,250.5948,4.48,14.32,47.84626,-54.09684
2020-05-21 14:19:01+00:00,240.9564,4.5,14.08,47.84626,-54.09684
2020-05-21 14:29:01+00:00,232.5031,4.5,14.08,47.84626,-54.09684
2020-05-21 14:39:01+00:00,230.3898,4.5,14.08,47.84626,-54.09684
2020-05-21 14:49:01+00:00,225.5348,4.49,14.08,47.84626,-54.09684
2020-05-21 14:59:01+00:00,216.8115,4.5,14.08,47.84626,-54.09684
2020-05-21 15:09:01+00:00,213.9915,4.5,14.08,47.84626,-54.09684
2020-05-21 15:19:01+00:00,213.7464,4.55,14.32,47.84626,-54.09684
2020-05-21 15:29:01+00:00,209.6697,4.6,14.32,47.84626,-54.09684
2020-05-21 15:39:01+00:00,204.3998,4.68,14.32,47.84626,-54.09684
2020-05-21 15:49:01+00:00,202.5298,4.7,14.32,47.84626,-54.09684
2020-05-21 15:59:01+00:00,200.0764,4.73,14.32,47.84626,-54.09684
2020-05-21 16:09:01+00:00,195.0981,4.8,14.32,47.84626,-54.09684
2020-05-21 16:19:01+00:00,190.1165,4.8,14.24,47.84626,-54.09684
2020-05-21 16:29:01+00:00,188.7365,4.7,14.24,47.84626,-54.09684
2020-05-21 16:39:01+00:00,188.4448,4.7,14.24,47.84626,-54.09684
2020-05-21 16:49:01+00:00,185.9265,4.7,14.24,47.84626,-54.09684
2020-05-21 16:59:01+00:00,185.8998,4.7,14.24,47.84626,-54.09684
2020-05-21 17:09:01+00:00,190.6882,4.7,14.24,47.84626,-54.09684
2020-05-21 17:19:01+00:00,192.3831,4.74,14.32,47.84626,-54.09684
2020-05-21 17:29:01+00:00,191.3665,4.8,14.32,47.84626,-54.09684
2020-05-21 17:39:01+00:00,194.4848,4.7,14.32,47.84626,-54.09684
2020-05-21 17:49:01+00:00,198.4331,4.7,14.32,47.84626,-54.09684
2020-05-21 17:59:01+00:00,200.3598,4.7,14.32,47.84626,-54.09684
2020-05-21 18:09:01+00:00,204.1364,4.7,14.32,47.84626,-54.09684
2020-05-21 18:19:01+00:00,209.4247,4.7,14.16,47.84626,-54.09684
2020-05-21 18:29:01+00:00,211.4748,4.7,14.16,47.84626,-54.09684
2020-05-21 18:39:01+00:00,217.2264,4.77,14.16,47.84626,-54.09684
2020-05-21 18:49:01+00:00,227.3264,4.79,14.16,47.84626,-54.09684
2020-05-21 18:59:01+00:00,236.9514,4.8,14.16,47.84626,-54.09684
2020-05-21 19:09:01+00:00,241.1981,4.81,14.16,47.84626,-54.09684
2020-05-21 19:19:01+00:00,243.5764,4.9,13.92,47.84626,-54.09684
2020-05-21 19:29:01+00:00,247.2397,5.0,13.92,47.84626,-54.09684
2020-05-21 19:39:01+00:00,250.9847,5.06,13.92,47.84626,-54.09684
2020-05-21 19:49:01+00:00,253.7581,5.16,13.92,47.84626,-54.09684
2020-05-21 19:59:01+00:00,258.0948,5.3,13.92,47.84626,-54.09684
2020-05-21 20:09:01+00:00,263.6681,5.39,13.92,47.84626,-54.09684
2020-05-21 20:19:01+00:00,269.4514,5.4,13.84,47.84626,-54.09684
2020-05-21 20:29:01+00:00,275.5697,5.45,13.84,47.84626,-54.09684
2020-05-21 20:39:01+00:00,279.2531,5.5,13.84,47.84626,-54.09684
2020-05-21 20:49:01+00:00,285.2464,5.5,13.84,47.84626,-54.09684
2020-05-21 20:59:01+00:00,293.9763,5.5,13.84,47.84626,-54.09684
2020-05-21 21:09:01+00:00,302.678,5.51,13.84,47.84626,-54.09684
2020-05-21 21:19:01+00:00,306.368,5.58,13.68,47.84626,-54.09684
2020-05-21 21:29:01+00:00,313.063,5.6,13.68,47.84626,-54.09684
2020-05-21 21:39:01+00:00,323.438,5.6,13.68,47.84626,-54.09684
2020-05-21 21:49:01+00:00,327.1063,5.6,13.68,47.84626,-54.09684
2020-05-21 21:59:01+00:00,332.1047,5.6,13.68,47.84626,-54.09684
2020-05-21 22:09:01+00:00,339.9430000000001,5.56,13.68,47.84626,-54.09684
2020-05-21 22:19:01+00:00,347.4948,5.5,13.6,47.84626,-54.09684
2020-05-21 22:29:01+00:00,352.6863,5.5,13.6,47.84626,-54.09684
2020-05-21 22:39:01+00:00,355.9763,5.5,13.6,47.84626,-54.09684
2020-05-21 22:49:01+00:00,359.2863,5.49,13.6,47.84626,-54.09684
2020-05-21 22:59:01+00:00,361.7296,5.45,13.6,47.84626,-54.09684
2020-05-21 23:09:01+00:00,362.4496,5.4,13.6,47.84626,-54.09684
2020-05-21 23:19:01+00:00,359.9796,5.4,13.29,47.84626,-54.09684
2020-05-21 23:29:01+00:00,357.5213,5.39,13.29,47.84626,-54.09684
2020-05-21 23:39:01+00:00,358.4645,5.4,13.29,47.84626,-54.09684
2020-05-21 23:49:01+00:00,353.3546,5.4,13.29,47.84626,-54.09684
2020-05-21 23:59:01+00:00,347.8729,5.4,13.29,47.84626,-54.09684
